Regional Weather Roundup
Issued by NWS Goodland, KS

Home | Current Version | Previous Version | Text Only | Print | Product List | Glossary On
Versions: 1 2 3 4 5 6 7 8 9 10 11 12 13 14 15 16 17 18 19 20 21 22 23 24 25 26 27 28 29 30 31 32 33 34 35 36 37 38 39 40 41 42 43 44 45 46 47 48 49 50
000
ASUS43 KGLD 291008
RWRGLD

GOODLAND FORECAST AREA HOURLY WEATHER ROUNDUP
NATIONAL WEATHER SERVICE GOODLAND KS
400 AM MDT SUN MAY 29 2016

...OFFICIAL OBSERVATIONS...

CITY           SKY/WX    TMP DP  RH WIND       PRES   REMARKS
GOODLAND KS    CLEAR     51  47  86 S3        30.10F
HILL CITY KS   CLEAR     53  50  89 CALM      30.07S
IMPERIAL NEB   CLEAR     51  49  92 NW3       30.08F
MCCOOK NEB     PTCLDY    54  49  83 W5        30.06R
AKRON CO       CLOUDY    51  41  68 SW9       30.12R
BURLINGTON CO  CLEAR     51  44  77 CALM      30.13R
LIMON CO       CLEAR     40  39  97 N5        30.17S
$$

...UNOFFICIAL OBSERVATIONS...

CITY           SKY/WX    TMP DP  RH WIND       PRES   REMARKS
GOVE KS          N/A     60  32  34 MISG        N/A
LENORA KS        N/A     56  32  40 MISG        N/A
SHARON SPRINGS   N/A     55  50  84 SE5         N/A
TRIBUNE KS     CLEAR     55  50  82 SE8       30.13R
KIT CARSON CO    N/A     47  42  84 CALM        N/A
YUMA CO          N/A     49  45  85 CALM        N/A
$$




USA.gov is the U.S. government's official web portal to all federal, state and local government web resources and services.